Presure
184 189 186 178 192 172 199 203 186 192 203 203 191 200 212 220 227 228 232 218 254 252 256 277 279 276 263 255 245 251 252 245 238 245 250 250 253 246
201 198 201 189 181 183 190 193 197 207 195 210 193 183 219 214 226 251 247 122 256 232 256 260 249 270 262 252 244 280 230 255 251 245 240 238 241 242
178 182 180 176 178 188 190 197 208 208 239 233 237 233 229 247 246 254 283 241 225 243 263 248 251 268 256 247 239 235 225 227 231 223 233 230 236 235
180 184 188 193 192 200 200 202 216 223 223 224 159 217 227 237 231 244 241 218 255 242 247 248 238 267 256 242 240 233 229 225 221 229 226 219 230 229
203 205 201 204 202 193 211 153 237 234 236 232 241 234 265 265 261 253 257 253 242 243 240 239 254 259 261 253 244 232 232 227 221 221 228 227 223 223
211 204 215 217 223 255 243 256 233 226 207 264 263 253 252 251 287 270 252 247 253 238 240 245 236 253 254 258 256 252 242 233 227 219 222 222 219 214
230 228 249 251 254 259 206 245 266 254 259 259 248 252 268 249 272 263 250 245 236 239 235 242 228 241 251 241 254 250 253 251 247 233 229 219 221 226
116 271 262 254 242 242 237 263 246 254 252 245 248 258 269 278 267 250 245 236 235 235 232 227 241 245 239 251 233 258 243 242 250 249 243 242 250 252
254 255 242 243 264 239 255 252 257 208 244 271 269 252 273 266 244 245 232 241 235 230 237 224 233 243 238 251 254 262 248 243 267 254 253 255 268 266
256 253 255 268 277 267 264 265 287 291 290 290 290 277 264 251 249 234 236 236 251 237 237 234 227 242 246 248 262 253 243 269 251 246 256 237 248 250
345 345 354 332 331 327 325 268 314 302 295 285 272 263 250 239 234 246 241 235 228 241 232 238 233 250 236 255 260 243 269 253 248 262 276 247 226 256
308 307 289 329 316 310 322 303 296 289 275 261 254 251 233 240 233 238 233 229 240 240 226 236 249 235 252 263 245 268 252 254 270 273 247 242 239 240
292 283 300 289 274 300 273 288 278 265 263 255 242 237 238 236 236 240 238 246 241 226 234 245 235 254 263 248 272 257 271 252 252 243 236 239 250 255
303 294 278 284 274 273 268 251 259 252 249 240 234 232 245 245 233 234 241 239 225 236 248 236 257 254 252 271 241 234 288 280 277 277 272 273 273 310
281 287 266 263 271 275 257 264 239 249 246 237 253 250 234 240 229 238 223 228 241 245 242 261 246 272 251 229 228 268 271 270 263 260 304 321 311 373
274 273 265 263 251 248 250 252 243 246 253 240 229 236 240 247 242 231 238 240 241 256 258 246 268 240 224 236 227 241 244 250 275 316 315 325 294 301
269 265 258 257 260 255 244 242 239 242 245 251 236 235 245 231 234 242 234 247 259 247 252 247 233 218 232 226 236 253 254 270 313 317 290 354 366 374
251 255 266 269 263 259 255 260 252 236 235 244 245 237 239 244 238 235 251 251 246 254 245 239 218 228 227 232 249 266 270 302 316 309 354 375 353 362
242 242 241 243 243 248 247 249 249 248 242 242 242 241 240 236 243 257 248 253 258 237 237 233 230 226 232 253 267 271 294 316 303 342 352 345 342 285
251 247 250 250 247 245 248 251 251 244 239 236 236 245 252 257 254 255 248 243 242 240 237 231 232 260 265 269 267 286 317 306 323 379 340 386 278 363
245 245 242 241 240 238 236 237 240 247 251 251 251 252 251 243 239 237 236 237 241 250 273 275 275 272 275 274 281 306 300 322 378 374 397 394 392 316
241 239 240 245 250 252 250 248 248 246 242 237 236 233 230 257 276 262 263 284 276 264 265 272 277 277 281 287 301 284 307 352 388 394 364 363 284 338
255 250 243 246 250 243 236 235 245 260 260 254 277 273 275 266 266 269 253 279 273 269 276 273 281 277 285 298 277 297 335 385 359 299 306 286 315 348
Wind_Speed
101 106 106 100 106 101 113 113 106 109 115 114 108 110 118 120 121 119 118 98 87 87 78 67 60 52 49 47 45 43 41 38 35 33 31 31 31 35
108 104 107 102 100 103 106 107 108 111 108 116 105 97 118 110 114 99 106 65 80 93 75 64 65 51 47 45 44 38 42 31 31 32 32 34 32 32
95 99 98 99 102 104 106 107 111 109 104 110 109 114 114 108 101 94 61 92 92 69 66 66 63 49 46 46 44 43 42 40 37 37 33 33 32 29
98 101 104 105 106 109 107 109 114 112 110 111 76 91 107 106 98 85 86 93 64 74 67 65 64 48 47 47 45 45 43 43 43 39 37 38 31 32
102 103 104 107 108 99 112 70 100 93 100 106 103 102 85 83 81 73 63 63 70 67 70 68 61 51 47 47 47 46 47 45 43 42 39 36 35 33
103 100 104 107 107 93 98 93 98 104 83 87 85 85 83 82 63 54 60 63 62 67 68 63 65 56 52 49 47 46 47 47 46 44 44 42 41 41
103 103 104 104 101 98 86 97 93 88 87 87 84 82 85 78 55 53 60 63 68 66 70 66 64 60 55 55 54 51 50 49 48 48 47 46 45 43
49 98 96 95 92 90 86 88 84 87 86 83 86 90 85 54 55 59 61 67 69 69 70 65 66 62 58 57 58 55 54 52 52 51 49 49 49 48
98 96 90 90 97 81 93 89 89 79 83 88 78 74 57 48 63 60 70 66 68 70 69 66 64 64 62 61 59 53 54 55 50 52 51 51 51 51
96 95 95 100 101 100 95 95 92 78 72 64 49 49 48 56 56 68 68 70 65 68 67 69 66 68 65 63 60 56 56 51 51 53 53 51 51 52
61 63 55 70 66 58 57 70 49 45 48 43 44 46 55 61 67 64 67 68 70 69 69 69 69 70 65 67 60 60 55 53 54 55 54 54 56 56
62 59 67 49 51 51 44 44 40 40 40 46 52 48 66 64 69 68 68 70 70 66 68 71 70 67 72 65 62 63 59 58 58 55 54 57 59 59
56 57 47 51 54 36 50 36 37 44 44 44 54 62 64 66 67 65 69 68 67 67 72 70 68 72 67 65 66 62 60 60 60 58 61 63 63 63
37 40 49 37 44 41 40 52 45 46 48 58 64 67 62 62 67 67 67 66 66 71 71 70 71 66 67 64 60 59 58 59 60 60 63 65 65 69
41 37 46 47 39 41 47 40 58 50 56 62 57 58 66 67 66 66 66 67 70 69 71 70 65 68 60 61 63 60 59 60 60 62 70 68 69 65
39 39 44 45 50 51 52 48 58 59 57 60 63 66 67 66 64 66 68 68 70 69 64 65 64 59 61 64 66 67 66 67 68 69 67 68 60 55
42 45 46 48 47 50 56 58 58 58 60 61 61 63 62 63 66 65 66 72 64 62 63 61 58 61 64 67 69 69 69 69 71 68 63 71 64 58
39 38 38 41 47 49 51 54 55 59 61 62 60 63 64 64 63 65 72 66 65 65 61 59 60 63 66 70 70 70 70 72 70 67 71 62 55 55
44 45 46 47 50 51 53 56 57 59 60 61 62 62 62 63 69 70 67 67 64 62 62 63 63 65 69 71 73 70 73 73 67 74 63 54 51 55
42 43 44 46 48 50 52 54 54 55 57 59 62 67 68 67 65 64 62 62 63 64 65 65 66 68 68 67 69 76 76 70 73 66 63 62 48 44
42 42 43 45 47 49 51 54 58 61 62 63 63 63 62 63 62 62 63 63 65 66 66 66 65 65 65 65 67 74 72 73 71 61 52 43 36 43
46 47 49 51 52 52 53 54 55 57 58 59 61 62 63 66 66 64 65 62 61 63 64 64 64 64 65 65 70 64 71 74 60 44 38 32 43 37
44 44 45 47 48 49 51 53 57 60 60 60 66 66 67 63 63 61 62 61 59 61 61 63 64 63 66 69 59 66 72 61 49 48 44 35 39 37
Wind_Direction
284 285 287 290 288 293 290 291 294 294 295 295 298 300 300 301 302 305 306 309 311 312 314 318 320 315 313 311 309 307 307 307 305 301 304 305 310 298
281 284 284 286 289 289 289 291 292 291 293 294 296 300 298 301 303 306 307 303 308 311 313 318 318 313 311 310 308 305 306 304 303 302 302 302 305 310
284 284 285 286 286 287 289 290 290 291 292 291 295 295 297 300 303 306 303 306 308 308 313 315 317 311 308 307 305 303 301 301 299 296 297 299 303 306
282 284 284 284 286 286 286 287 288 289 291 293 294 296 297 299 302 302 304 305 304 307 309 312 314 312 304 302 299 298 295 296 296 296 295 294 299 300
280 282 282 283 283 286 285 291 289 289 291 291 292 296 299 303 302 301 299 299 301 303 306 311 314 312 306 299 294 294 293 290 289 291 292 289 286 286
279 279 280 281 283 285 284 286 285 287 293 294 294 298 300 300 301 294 296 296 297 301 304 309 310 312 309 306 298 293 289 287 286 286 287 286 284 284
280 280 283 283 285 286 285 289 289 292 294 295 294 299 299 299 293 290 292 293 298 300 303 305 308 311 311 306 305 299 296 291 288 284 283 282 282 281
290 283 284 283 281 281 283 290 292 292 293 293 295 293 292 290 287 289 289 295 297 299 301 304 306 310 306 307 301 300 296 296 294 289 285 283 283 279
281 283 283 284 284 284 288 287 288 288 289 290 287 290 286 284 289 286 293 293 295 299 299 303 304 309 304 309 306 299 295 295 293 290 289 287 284 279
279 280 281 279 276 279 282 283 284 281 280 283 281 281 277 282 284 288 291 292 295 297 300 303 302 306 306 307 306 299 296 293 290 289 288 284 283 279
273 273 275 275 276 273 268 280 277 274 275 273 275 274 279 283 285 286 287 293 297 297 301 302 302 307 302 306 302 300 298 293 291 291 290 284 281 280
272 273 274 269 267 269 271 271 267 268 271 271 275 275 281 280 285 286 291 295 295 297 299 302 304 302 304 303 300 300 297 296 295 292 286 283 282 282
269 270 269 269 271 268 271 263 266 267 269 272 274 277 278 283 285 286 291 292 296 297 301 302 302 303 301 301 302 300 300 296 292 289 287 285 286 285
259 260 264 259 263 262 265 272 267 269 269 274 277 282 279 278 287 290 292 295 295 299 299 300 302 301 301 302 300 301 301 300 299 298 294 292 290 291
258 255 262 264 261 259 264 263 274 267 269 276 271 272 284 284 290 291 292 295 297 297 298 301 300 302 300 299 300 304 303 301 300 298 300 298 295 303
260 260 261 264 266 267 266 264 267 268 269 277 286 283 283 285 288 291 293 296 296 299 299 300 301 299 299 299 300 302 302 302 305 305 303 305 296 292
257 260 264 266 263 266 271 275 279 280 279 277 283 287 286 288 289 292 294 297 297 297 298 297 297 300 299 299 301 302 302 305 308 307 301 306 303 301
269 271 271 269 269 271 273 270 272 279 281 283 283 285 287 289 291 293 296 295 296 296 294 295 299 299 299 299 301 303 304 308 309 307 308 302 297 297
271 269 271 269 270 270 272 274 275 278 282 283 285 288 290 290 293 294 293 294 294 294 295 295 298 299 300 302 304 304 308 309 307 309 305 302 295 291
268 270 271 271 274 276 278 279 281 285 287 286 287 290 290 290 290 291 291 291 292 293 295 297 298 299 300 303 303 307 309 307 308 307 304 302 292 289
278 280 281 283 283 284 286 287 287 287 286 286 287 288 289 289 290 291 292 293 293 294 294 295 298 298 301 302 305 308 306 308 310 307 304 302 298 284
280 281 282 281 282 282 284 285 286 286 286 287 287 287 288 289 292 289 290 293 293 293 296 297 298 300 303 306 309 304 307 310 309 304 298 293 286 283
275 279 282 283 283 284 284 284 287 290 291 291 292 291 291 290 291 292 290 293 294 294 295 297 301 302 306 308 304 305 309 308 303 302 297 285 285 279